SCP
-0 -0 0 0 0 0 0 -0 -0 -0 -0 -0 -0 -0 -0 -0 -0 -0 -0 -0 -0 -0 -0 -0 -0 -0 -0 -0 -0 -0 -0 -0 -0 -0 -0 -0 -0 -0 -0 -0 -0 0 -0
0 -0 0 0 0 0 0 0 -0 -0 -0 -0 -0 -0 -0 -0 -0 -0 -0 -0 -0 -0 -0 -0 -0 -0 -0 -0 -0 -0 -0 -0 -0 -0 -0 -0 -0 -0 -0 -0 -0 -0 -0
0 -0 -0 0 0 0 0 0 0 -0 -0 -0 -0 -0 -0 -0 -0 -0 -0 -0 -0 -0 -0 -0 -0 -0 -0 -0 -0 -0 -0 -0 -0 -0 -0 -0 -0 -0 -0 -0 -0 -0 -0
0 0 -0 0 0 -0 -0 0 0 -0 -0 -0 -0 -0 -0 -0 -0 -0 -0 -0 -0 -0 -0 -0 -0 -0 -0 -0 -0 -0 -0 -0 -0 -0 0 0 0 -0 -0 -0 -0 -0 -0
0 0 0 0 -0 -0 -0 -0 -0 -0 -0 -0 -0 -0 -0 -0 -0 -0 -0 -0 -0 -0 -0 -0 -0 -0 -0 -0 -0 -0 -0 -0 -0 0 0 0 0 -0 -0 -0 -0 -0 -0
0 0 0 -0 -0 -0 -0 -0 -0 -0 -0 -0 -0 -0 -0 -0 -0 -0 -0 -0 -0 -0 -0 -0 -0 -0 -0 -0 -0 -0 -0 -0 -0 -0 0 0 0 -0 -0 -0 -0 -0 -0
0 0 0 -0 -0 -0 -0 -0 -0 -0 -0 -0 -0 -0 -0 -0 -0 -0 -0 -0 -0 -0 -0 -0 -0 -0 -0 -0 -0 -0 -0 -0 -0 0 0 0 0 -0 -0 -0 -0 -0 -0
-0 0 0 0 -0 -0 -0 -0 -0 -0 -0 -0 -0 -0 -0 -0 -0 -0 -0 -0 -0 -0 -0 -0 -0 -0 -0 -0 -0 -0 -0 -0 -0 -0 -0 0 -0 -0 -0 -0 -0 -0 -0
0 -0 0 0 0 -0 -0 -0 -0 -0 -0 -0 -0 -0 -0 -0 -0 -0 -0 -0 -0 -0 -0 -0 -0 -0 -0 -0 -0 -0 -0 -0 0 0 0 0 -0 -0 -0 -0 -0 -0 -0
0 -0 -0 0 0 0 0 -0 0 0 -0 -0 -0 -0 -0 -0 -0 -0 -0 -0 -0 -0 -0 -0 -0 -0 -0 -0 -0 -0 -0 -0 0 0 0 0 -0 -0 -0 -0 -0 -0 -0
0 0 0 0 -0 0 0 0 0 0 0 -0 -0 -0 -0 0 0 0 0 -0 -0 -0 -0 -0 -0 -0 -0 -0 -0 -0 -0 0 0 0 0 0 -0 -0 0 0 0 0 0
-0 0 -0 -0 -0 -0 0 0 0 0 0 0 0 0 0 0 0 0 0 0 -0 -0 -0 -0 -0 -0 0 0 0 0 0 0 0 0 0 0 0 0 0 0 0 0 0
-0 0 -0 -0 -0 -0 0 0 0 0 0 0 0 0 0 0 0 0 0 0 0 0 0 0 0 0 0 0 0 0 0 0 0 0 0 0 0 0 0 0 0 0 0
-0 -0 0 -0 -0 -0 0 0 0 0 0 0 0 0 0 0 0 0 0 0 0 0 0 0 0 0 0 0 0 0 0 0 0 0 0 0 0 0 0 0 0 0 0
-0 0 -0 -0 -0 -0 -0 0 0 0 0 0 0 0 0 0 0 0 0 0 0 0 0 0 0 0 0 0 0 0 0 0 0 0 0 0 0 0 0 0 0 0 0
-0 -0 0 0 -0 -0 0 0 0 0 0 0 0 0 0 0 0 0 0 0 0 0 0 0 0 0 0 0 0 0 0 0 0 0 0 0 0 0 0 0 0 0 0
-0 -0 -0 -0 0 -0 -0 0 0 0 0 0 0 0 0 0 0 0 0 0 0 0 0 0 0 0 0 0 0 0 0 0 0 0 0 0 0 0 0 0 0 0 0
-0 -0 -0 -0 -0 -0 -0 0 0 0 0 0 0 0 0 0 0 0 0 0 0 0 0 0 0 0 0 0 0 0 0 0 0 0 0 0 0 0 0 0 0 0 0
-0 -0 -0 -0 -0 -0 -0 0 0 0 0 0 0 0 0 0 0 0 0 0 0 0 0 0 0 0 0 0 0 0 0 0 0 0 0 0 0 0 0 0 0 0 0
0 0 0 0 0 0 0 0 0 0 0 0 0 0 0 0 0 0 0 0 0 0 0 0 0 0 0 0 0 0 0 0 0 0 0 0 0 0 0 0 0 0 0
0 0 0 0 0 0 0 0 0 0 0 0 0 0 0 0 0 0 0 0 0 0 0 0 0 0 0 0 0 0 0 0 0 0 0 0 0 0 0 0 0 0 0
0 0 0 0 0 0 0 0 0 0 0 0 0 0 0 0 0 0 0 0 0 0 0 0 0 0 0 0 0 0 0 0 0 0 0 0 0 0 0 0 0 0 0
0 0 0 0 0 0 0 0 0 0 0 0 0 0 0 0 0 0 0 0 0 0 0 0 0 0 0 0 0 0 0 0 0 0 0 0 0 0 0 0 0 0 0
0 0 0 0 0 0 0 0 0 0 0 0 0 0 0 0 0 0 0 0 0 0 0 0 0 0 0 0 0 0 0 0 0 0 0 0 0 0 0 0 0 0 0
0 0 0 0 0 0 0 0 0 0 0 0 0 0 0 0 0 0 0 0 0 0 0 0 0 0 0 0 0 0 0 0 0 0 0 0 0 0 0 0 0 0 0
0 0 0 0 0 0 0 0 0 0 0 0 0 0 0 0 0 0 0 0 0 0 0 0 0 0 0 0 0 0 0 0 0 0 0 0 0 0 0 0 0 0 0
Wind_Speed_500mb
41 29 29 25 16 20 20 19 19 19 20 20 21 22 28 19 21 23 23 27 32 39 38 34 29 30 28 29 29 30 32 35 40 44 47 48 46 42 42 41 42 44 44
42 34 31 27 22 22 22 21 21 21 22 22 22 22 28 20 19 22 23 31 34 40 38 37 39 33 31 32 31 29 28 28 29 35 43 48 46 48 48 50 52 49 48
38 35 33 28 24 24 23 22 22 24 24 23 23 23 25 21 18 23 20 28 34 36 36 38 35 34 31 33 35 32 29 26 25 30 37 39 38 38 39 38 39 40 40
35 35 35 30 27 25 23 23 23 24 25 25 24 26 32 22 15 19 19 28 33 35 35 39 31 30 29 32 34 34 33 29 26 24 29 36 39 36 32 27 30 33 33
38 37 36 31 28 26 22 20 21 21 23 23 25 31 30 22 13 17 19 25 29 32 31 32 33 30 33 36 37 37 35 33 33 40 44 49 45 41 38 37 44 46 44
40 38 36 33 30 26 23 21 19 19 19 20 23 27 27 19 15 15 19 23 25 30 27 30 30 31 38 33 36 41 40 39 44 44 42 41 40 37 40 46 41 41 37
40 40 38 34 30 27 24 21 19 17 17 18 20 22 22 18 14 15 18 21 23 25 24 24 24 23 24 29 34 38 43 38 40 39 40 40 35 32 33 37 37 40 35
39 42 39 35 31 27 24 22 19 17 16 15 16 15 13 11 12 13 18 20 20 19 21 20 22 22 27 33 32 38 36 34 32 33 28 28 25 23 24 26 28 30 32
34 41 41 38 34 30 25 23 20 18 17 15 14 13 12 12 11 14 16 18 19 19 18 18 20 22 23 22 24 28 30 32 24 25 19 18 14 26 28 28 27 28 33
33 41 42 40 38 35 30 25 22 20 18 16 15 15 13 13 14 15 18 19 19 19 18 17 16 17 18 17 15 17 20 21 19 21 18 13 15 25 30 35 35 35 33
36 34 39 43 41 38 34 31 28 25 22 20 18 17 14 13 16 18 20 20 19 18 18 16 16 14 12 13 13 9 10 13 16 18 19 16 22 25 25 28 32 35 39
50 44 41 40 44 43 40 37 33 31 28 24 21 19 17 16 18 22 22 19 19 19 19 16 14 12 11 11 12 14 17 22 20 22 18 14 20 19 23 28 33 38 37
51 47 46 48 45 48 46 43 40 35 32 29 26 23 20 21 23 25 23 20 19 17 16 14 12 10 9 11 13 22 20 26 27 23 20 12 20 19 29 31 33 34 37
59 53 48 43 49 49 49 49 45 42 39 36 31 26 24 25 27 27 22 18 17 15 12 11 8 8 9 11 15 21 27 22 22 27 20 13 23 28 27 31 30 31 35
62 60 58 50 47 55 56 53 50 47 45 41 37 31 29 24 26 26 21 19 17 12 10 7 6 7 9 13 17 15 28 23 21 13 11 17 19 29 24 26 28 31 30
63 64 63 61 51 51 56 60 55 53 48 49 44 37 34 34 29 28 25 22 19 13 10 10 10 10 11 14 17 18 19 26 19 13 13 10 9 18 23 23 23 28 28
64 64 67 65 61 57 56 54 54 53 55 53 50 45 43 42 42 35 33 29 29 22 17 22 20 17 17 18 18 20 22 24 22 18 20 18 15 12 24 18 20 25 24
67 68 68 68 70 65 63 60 58 55 54 54 51 53 53 50 50 45 43 41 36 38 27 24 24 24 24 22 24 26 28 29 28 23 25 25 20 17 15 13 20 24 22
69 71 69 73 73 73 69 67 65 60 58 55 56 55 58 60 56 56 52 50 49 46 44 37 35 36 32 30 31 33 33 33 31 32 32 32 27 22 17 16 14 23 22
70 72 73 72 75 75 72 74 73 71 66 61 62 61 60 64 63 61 61 57 58 51 51 47 45 41 40 39 40 37 37 38 39 39 37 38 33 29 24 23 22 23 29
71 76 77 77 77 82 83 84 86 85 78 72 67 64 63 66 65 70 65 66 65 60 59 56 53 51 50 47 42 39 40 44 45 44 42 42 41 36 31 32 30 29 27
65 71 78 80 80 81 87 87 89 87 87 79 69 66 67 67 72 72 68 69 70 70 66 65 61 63 56 55 53 43 29 41 48 52 50 48 45 40 37 37 36 32 32
68 65 68 76 79 81 88 91 95 96 94 90 80 73 73 72 79 72 75 76 75 75 74 76 71 71 63 65 65 45 23 28 43 53 55 54 51 48 48 47 45 43 41
59 65 65 69 77 81 91 94 94 97 103 98 88 86 76 77 81 77 77 75 77 75 85 78 77 78 71 73 76 72 65 32 25 26 53 62 60 58 54 51 51 50 49
36 46 55 59 74 80 85 92 97 98 99 97 93 89 84 73 81 81 78 80 76 77 78 72 87 81 83 91 78 75 83 64 49 47 36 55 71 70 60 59 55 54 54
18 27 38 48 60 76 80 84 92 95 96 94 95 80 77 79 82 84 84 85 81 84 84 75 95 77 85 84 88 90 85 86 72 62 54 51 63 67 65 66 62 58 57
Wind_Direction_500mb
174 173 172 168 164 140 126 123 120 113 105 101 101 100 100 90 83 70 64 86 93 94 91 88 92 98 94 95 105 109 111 108 103 96 91 87 86 86 87 85 84 85 84
164 172 174 175 158 142 132 127 121 114 105 103 104 105 109 101 86 69 72 88 93 96 92 87 88 93 92 91 95 104 110 108 103 99 97 95 96 93 91 90 87 86 85
166 169 168 168 157 144 135 130 118 111 105 102 102 106 107 97 80 77 83 95 97 98 92 88 93 92 85 83 90 99 103 106 106 110 107 102 102 100 96 98 95 92 87
172 171 169 167 158 149 143 133 121 113 107 106 106 108 110 109 103 82 91 102 102 102 95 92 93 84 77 79 85 92 94 97 100 99 103 100 92 84 84 88 84 81 79
181 176 170 169 161 154 146 131 121 114 110 108 107 114 110 126 104 86 85 103 107 101 101 100 93 84 82 87 87 88 91 94 97 94 87 80 80 81 79 81 83 82 78
183 178 174 171 164 158 150 142 132 123 115 110 110 117 125 141 129 103 96 111 115 110 105 108 104 95 92 90 92 95 91 93 95 98 97 98 90 90 93 90 93 93 97
181 181 180 176 171 166 159 153 144 137 129 120 119 128 139 129 116 106 107 115 120 122 114 118 109 100 95 94 99 100 103 106 104 102 103 101 99 94 101 103 103 106 103
186 184 185 182 179 174 169 164 158 152 142 131 126 133 136 125 113 108 121 125 126 124 120 118 102 93 92 103 96 106 111 116 107 104 99 86 89 96 104 112 112 112 110
190 191 190 188 185 183 180 176 170 165 159 150 144 148 145 137 133 127 130 129 129 121 119 109 104 101 105 108 112 120 122 122 117 108 102 88 74 83 95 98 109 99 99
194 197 196 195 192 190 188 185 183 179 175 168 161 157 153 148 146 143 142 138 131 123 118 113 109 110 118 125 134 146 146 145 133 120 99 76 79 102 102 101 102 104 92
198 201 199 202 201 197 196 193 192 190 186 184 178 169 165 162 157 151 145 136 127 124 120 118 114 107 104 116 125 156 179 165 137 90 90 86 89 97 105 105 104 100 95
202 203 207 206 209 204 203 202 200 198 196 193 189 184 177 172 167 159 151 144 137 128 120 117 117 114 117 127 132 151 156 138 131 115 100 59 98 102 110 102 99 96 95
206 206 206 210 214 212 209 208 206 204 203 198 194 192 186 181 175 169 165 156 140 130 120 118 112 105 113 124 134 158 151 144 134 120 112 107 95 88 101 104 97 99 95
211 214 214 211 214 217 219 216 213 210 207 205 200 199 191 184 181 178 173 165 161 155 152 141 125 111 114 123 142 162 149 155 151 139 130 122 100 102 101 99 98 96 95
217 218 220 220 217 213 215 223 220 217 213 210 208 200 196 193 189 185 185 183 186 188 183 185 182 147 140 146 165 177 157 166 174 187 169 127 111 112 107 107 104 102 98
222 224 224 226 226 224 220 222 225 222 221 213 216 211 203 204 200 191 195 196 199 199 233 229 219 199 186 179 182 183 176 177 188 212 210 198 187 138 121 117 111 104 105
228 227 226 229 230 231 230 225 227 229 224 222 218 216 212 213 212 210 213 206 203 211 231 230 223 213 208 196 196 196 200 203 203 201 202 221 226 226 142 137 131 121 118
233 231 230 231 232 232 232 227 228 230 229 229 224 218 217 220 220 223 222 221 220 217 220 232 230 224 216 211 209 209 210 211 217 213 210 218 234 247 253 195 147 135 125
241 236 234 232 234 234 234 231 231 232 234 232 231 225 221 222 226 225 227 228 225 227 226 224 219 220 218 213 213 209 211 214 222 229 225 224 236 241 234 221 208 154 139
243 241 239 237 236 234 237 234 233 235 237 235 233 232 228 226 229 228 231 231 232 232 227 231 225 223 220 218 209 211 209 218 222 225 233 233 236 234 230 224 212 182 155
244 241 240 237 236 233 233 231 232 231 235 237 235 235 235 232 230 235 235 233 235 237 238 234 231 225 222 218 214 214 218 222 224 230 236 234 228 230 229 219 205 196 185
245 244 242 239 237 238 237 235 235 234 236 240 243 244 240 239 240 234 238 239 238 238 234 241 240 230 227 225 217 217 222 231 234 233 233 233 238 237 229 221 214 214 210
244 243 245 241 238 237 238 236 236 233 236 237 239 241 238 241 244 235 238 240 242 244 242 242 239 243 248 229 227 225 214 220 228 233 235 231 231 231 233 224 220 217 218
245 245 247 245 240 238 237 238 239 238 236 240 240 240 237 245 241 238 242 238 246 243 246 246 245 259 247 242 230 227 232 235 213 227 236 231 231 230 230 229 229 227 225
251 250 250 250 243 241 242 241 241 241 244 250 248 243 244 245 246 242 244 242 244 248 246 258 243 252 251 244 246 240 235 236 238 242 242 239 235 231 226 229 230 229 225
269 263 248 246 247 245 245 244 243 244 247 249 250 252 251 242 248 247 246 244 245 249 250 251 244 267 247 254 246 249 250 244 243 240 241 244 241 235 233 229 227 227 226
Wind_Speed_850mb
41 29 29 25 16 20 20 19 19 19 20 20 21 22 28 19 21 23 23 27 32 39 38 34 29 30 28 29 29 30 32 35 40 44 47 48 46 42 42 41 42 44 44
42 34 31 27 22 22 22 21 21 21 22 22 22 22 28 20 19 22 23 31 34 40 38 37 39 33 31 32 31 29 28 28 29 35 43 48 46 48 48 50 52 49 48
38 35 33 28 24 24 23 22 22 24 24 23 23 23 25 21 18 23 20 28 34 36 36 38 35 34 31 33 35 32 29 26 25 30 37 39 38 38 39 38 39 40 40
35 35 35 30 27 25 23 23 23 24 25 25 24 26 32 22 15 19 19 28 33 35 35 39 31 30 29 32 34 34 33 29 26 24 29 36 39 36 32 27 30 33 33
38 37 36 31 28 26 22 20 21 21 23 23 25 31 30 22 13 17 19 25 29 32 31 32 33 30 33 36 37 37 35 33 33 40 44 49 45 41 38 37 44 46 44
40 38 36 33 30 26 23 21 19 19 19 20 23 27 27 19 15 15 19 23 25 30 27 30 30 31 38 33 36 41 40 39 44 44 42 41 40 37 40 46 41 41 37
40 40 38 34 30 27 24 21 19 17 17 18 20 22 22 18 14 15 18 21 23 25 24 24 24 23 24 29 34 38 43 38 40 39 40 40 35 32 33 37 37 40 35
39 42 39 35 31 27 24 22 19 17 16 15 16 15 13 11 12 13 18 20 20 19 21 20 22 22 27 33 32 38 36 34 32 33 28 28 25 23 24 26 28 30 32
34 41 41 38 34 30 25 23 20 18 17 15 14 13 12 12 11 14 16 18 19 19 18 18 20 22 23 22 24 28 30 32 24 25 19 18 14 26 28 28 27 28 33
33 41 42 40 38 35 30 25 22 20 18 16 15 15 13 13 14 15 18 19 19 19 18 17 16 17 18 17 15 17 20 21 19 21 18 13 15 25 30 35 35 35 33
36 34 39 43 41 38 34 31 28 25 22 20 18 17 14 13 16 18 20 20 19 18 18 16 16 14 12 13 13 9 10 13 16 18 19 16 22 25 25 28 32 35 39
50 44 41 40 44 43 40 37 33 31 28 24 21 19 17 16 18 22 22 19 19 19 19 16 14 12 11 11 12 14 17 22 20 22 18 14 20 19 23 28 33 38 37
51 47 46 48 45 48 46 43 40 35 32 29 26 23 20 21 23 25 23 20 19 17 16 14 12 10 9 11 13 22 20 26 27 23 20 12 20 19 29 31 33 34 37
59 53 48 43 49 49 49 49 45 42 39 36 31 26 24 25 27 27 22 18 17 15 12 11 8 8 9 11 15 21 27 22 22 27 20 13 23 28 27 31 30 31 35
62 60 58 50 47 55 56 53 50 47 45 41 37 31 29 24 26 26 21 19 17 12 10 7 6 7 9 13 17 15 28 23 21 13 11 17 19 29 24 26 28 31 30
63 64 63 61 51 51 56 60 55 53 48 49 44 37 34 34 29 28 25 22 19 13 10 10 10 10 11 14 17 18 19 26 19 13 13 10 9 18 23 23 23 28 28
64 64 67 65 61 57 56 54 54 53 55 53 50 45 43 42 42 35 33 29 29 22 17 22 20 17 17 18 18 20 22 24 22 18 20 18 15 12 24 18 20 25 24
67 68 68 68 70 65 63 60 58 55 54 54 51 53 53 50 50 45 43 41 36 38 27 24 24 24 24 22 24 26 28 29 28 23 25 25 20 17 15 13 20 24 22
69 71 69 73 73 73 69 67 65 60 58 55 56 55 58 60 56 56 52 50 49 46 44 37 35 36 32 30 31 33 33 33 31 32 32 32 27 22 17 16 14 23 22
70 72 73 72 75 75 72 74 73 71 66 61 62 61 60 64 63 61 61 57 58 51 51 47 45 41 40 39 40 37 37 38 39 39 37 38 33 29 24 23 22 23 29
71 76 77 77 77 82 83 84 86 85 78 72 67 64 63 66 65 70 65 66 65 60 59 56 53 51 50 47 42 39 40 44 45 44 42 42 41 36 31 32 30 29 27
65 71 78 80 80 81 87 87 89 87 87 79 69 66 67 67 72 72 68 69 70 70 66 65 61 63 56 55 53 43 29 41 48 52 50 48 45 40 37 37 36 32 32
68 65 68 76 79 81 88 91 95 96 94 90 80 73 73 72 79 72 75 76 75 75 74 76 71 71 63 65 65 45 23 28 43 53 55 54 51 48 48 47 45 43 41
59 65 65 69 77 81 91 94 94 97 103 98 88 86 76 77 81 77 77 75 77 75 85 78 77 78 71 73 76 72 65 32 25 26 53 62 60 58 54 51 51 50 49
36 46 55 59 74 80 85 92 97 98 99 97 93 89 84 73 81 81 78 80 76 77 78 72 87 81 83 91 78 75 83 64 49 47 36 55 71 70 60 59 55 54 54
18 27 38 48 60 76 80 84 92 95 96 94 95 80 77 79 82 84 84 85 81 84 84 75 95 77 85 84 88 90 85 86 72 62 54 51 63 67 65 66 62 58 57
Wind_Direction_850mb
174 173 172 168 164 140 126 123 120 113 105 101 101 100 100 90 83 70 64 86 93 94 91 88 92 98 94 95 105 109 111 108 103 96 91 87 86 86 87 85 84 85 84
164 172 174 175 158 142 132 127 121 114 105 103 104 105 109 101 86 69 72 88 93 96 92 87 88 93 92 91 95 104 110 108 103 99 97 95 96 93 91 90 87 86 85
166 169 168 168 157 144 135 130 118 111 105 102 102 106 107 97 80 77 83 95 97 98 92 88 93 92 85 83 90 99 103 106 106 110 107 102 102 100 96 98 95 92 87
172 171 169 167 158 149 143 133 121 113 107 106 106 108 110 109 103 82 91 102 102 102 95 92 93 84 77 79 85 92 94 97 100 99 103 100 92 84 84 88 84 81 79
181 176 170 169 161 154 146 131 121 114 110 108 107 114 110 126 104 86 85 103 107 101 101 100 93 84 82 87 87 88 91 94 97 94 87 80 80 81 79 81 83 82 78
183 178 174 171 164 158 150 142 132 123 115 110 110 117 125 141 129 103 96 111 115 110 105 108 104 95 92 90 92 95 91 93 95 98 97 98 90 90 93 90 93 93 97
181 181 180 176 171 166 159 153 144 137 129 120 119 128 139 129 116 106 107 115 120 122 114 118 109 100 95 94 99 100 103 106 104 102 103 101 99 94 101 103 103 106 103
186 184 185 182 179 174 169 164 158 152 142 131 126 133 136 125 113 108 121 125 126 124 120 118 102 93 92 103 96 106 111 116 107 104 99 86 89 96 104 112 112 112 110
190 191 190 188 185 183 180 176 170 165 159 150 144 148 145 137 133 127 130 129 129 121 119 109 104 101 105 108 112 120 122 122 117 108 102 88 74 83 95 98 109 99 99
194 197 196 195 192 190 188 185 183 179 175 168 161 157 153 148 146 143 142 138 131 123 118 113 109 110 118 125 134 146 146 145 133 120 99 76 79 102 102 101 102 104 92
198 201 199 202 201 197 196 193 192 190 186 184 178 169 165 162 157 151 145 136 127 124 120 118 114 107 104 116 125 156 179 165 137 90 90 86 89 97 105 105 104 100 95
202 203 207 206 209 204 203 202 200 198 196 193 189 184 177 172 167 159 151 144 137 128 120 117 117 114 117 127 132 151 156 138 131 115 100 59 98 102 110 102 99 96 95
206 206 206 210 214 212 209 208 206 204 203 198 194 192 186 181 175 169 165 156 140 130 120 118 112 105 113 124 134 158 151 144 134 120 112 107 95 88 101 104 97 99 95
211 214 214 211 214 217 219 216 213 210 207 205 200 199 191 184 181 178 173 165 161 155 152 141 125 111 114 123 142 162 149 155 151 139 130 122 100 102 101 99 98 96 95
217 218 220 220 217 213 215 223 220 217 213 210 208 200 196 193 189 185 185 183 186 188 183 185 182 147 140 146 165 177 157 166 174 187 169 127 111 112 107 107 104 102 98
222 224 224 226 226 224 220 222 225 222 221 213 216 211 203 204 200 191 195 196 199 199 233 229 219 199 186 179 182 183 176 177 188 212 210 198 187 138 121 117 111 104 105
228 227 226 229 230 231 230 225 227 229 224 222 218 216 212 213 212 210 213 206 203 211 231 230 223 213 208 196 196 196 200 203 203 201 202 221 226 226 142 137 131 121 118
233 231 230 231 232 232 232 227 228 230 229 229 224 218 217 220 220 223 222 221 220 217 220 232 230 224 216 211 209 209 210 211 217 213 210 218 234 247 253 195 147 135 125
241 236 234 232 234 234 234 231 231 232 234 232 231 225 221 222 226 225 227 228 225 227 226 224 219 220 218 213 213 209 211 214 222 229 225 224 236 241 234 221 208 154 139
243 241 239 237 236 234 237 234 233 235 237 235 233 232 228 226 229 228 231 231 232 232 227 231 225 223 220 218 209 211 209 218 222 225 233 233 236 234 230 224 212 182 155
244 241 240 237 236 233 233 231 232 231 235 237 235 235 235 232 230 235 235 233 235 237 238 234 231 225 222 218 214 214 218 222 224 230 236 234 228 230 229 219 205 196 185
245 244 242 239 237 238 237 235 235 234 236 240 243 244 240 239 240 234 238 239 238 238 234 241 240 230 227 225 217 217 222 231 234 233 233 233 238 237 229 221 214 214 210
244 243 245 241 238 237 238 236 236 233 236 237 239 241 238 241 244 235 238 240 242 244 242 242 239 243 248 229 227 225 214 220 228 233 235 231 231 231 233 224 220 217 218
245 245 247 245 240 238 237 238 239 238 236 240 240 240 237 245 241 238 242 238 246 243 246 246 245 259 247 242 230 227 232 235 213 227 236 231 231 230 230 229 229 227 225
251 250 250 250 243 241 242 241 241 241 244 250 248 243 244 245 246 242 244 242 244 248 246 258 243 252 251 244 246 240 235 236 238 242 242 239 235 231 226 229 230 229 225
269 263 248 246 247 245 245 244 243 244 247 249 250 252 251 242 248 247 246 244 245 249 250 251 244 267 247 254 246 249 250 244 243 240 241 244 241 235 233 229 227 227 226